Location: Rounton
(54.4000°N, 1.3500°W)
Time: 14:09:15
(UTC+00:00)

Transit 2A - Pass Details

Date: 08 December 2021
Orbit: 591 x 967 km, 66.7° (Epoch: 21 January)

Event Time Altitude Azimuth Distance (km) Brightness Sun altitude
Rises 06:43:27 0° 317° (NW) 3,646 - -11.9°
Reaches altitude 10° 06:46:02 10° 319° (NW) 2,712 - -11.6°
Exits shadow 06:46:18 11° 319° (NW) 2,612 8.2 -11.6°
Maximum altitude 06:52:27 75° 45° (NE) 1,002 6.6 -10.7°
Drops below altitude 10° 06:58:43 10° 131° (SE) 2,642 10.2 -9.9°
Sets 07:01:12 0° 133° (SE) 3,547 11.1 -9.6°
